owner,sensor,date,latitude,longitude,relative_humidity,qcFlag 
COAPS,ioos:station:COAPS:N7:2,2008-09-29T16:44:00Z,29.6619,-84.3731,64.69,1111122 
COAPS,ioos:station:COAPS:N7:2,2008-09-29T16:45:00Z,29.6619,-84.3731,65.1,1111122 
COAPS,ioos:station:COAPS:N7:2,2008-09-29T16:46:00Z,29.6619,-84.3731,66.22,1111122 
COAPS,ioos:station:COAPS:N7:2,2008-09-29T16:47:00Z,29.6619,-84.3731,64.96,1111122 
COAPS,ioos:station:COAPS:N7:2,2008-09-29T16:48:00Z,29.6619,-84.3731,66.13,1111122 
COAPS,ioos:station:COAPS:N7:2,2008-09-29T16:49:00Z,29.6619,-84.3731,67.82,1111122 
COAPS,ioos:station:COAPS:N7:2,2008-09-29T16:50:00Z,29.6619,-84.3731,66.37,1111122 
COAPS,ioos:station:COAPS:N7:2,2008-09-29T16:51:00Z,29.6619,-84.3731,66.04,1111122 
COAPS,ioos:station:COAPS:N7:2,2008-09-29T16:52:00Z,29.6619,-84.3731,65.57,1111122 
COAPS,ioos:station:COAPS:N7:2,2008-09-29T16:53:00Z,29.6619,-84.3731,66.65,1111122 
COAPS,ioos:station:COAPS:N7:2,2008-09-29T16:54:00Z,29.6619,-84.3731,67.46,1111122 
COAPS,ioos:station:COAPS:N7:2,2008-09-29T16:55:00Z,29.6619,-84.3731,65.91,1111122 
COAPS,ioos:station:COAPS:N7:2,2008-09-29T16:56:00Z,29.6619,-84.3731,64.36,1111122 
COAPS,ioos:station:COAPS:N7:2,2008-09-29T16:57:00Z,29.6619,-84.3731,65.15,1111122 
COAPS,ioos:station:COAPS:N7:2,2008-09-29T16:58:00Z,29.6619,-84.3731,65.96,1111122 
COAPS,ioos:station:COAPS:N7:2,2008-09-29T16:59:00Z,29.6619,-84.3731,65.54,1111122 
COAPS,ioos:station:COAPS:N7:2,2008-09-29T17:00:00Z,29.6619,-84.3731,65.33,1111122 
COAPS,ioos:station:COAPS:N7:2,2008-09-29T17:01:00Z,29.6619,-84.3731,66.13,1111122 
COAPS,ioos:station:COAPS:N7:2,2008-09-29T17:02:00Z,29.6619,-84.3731,66.7,1111122 
COAPS,ioos:station:COAPS:N7:2,2008-09-29T17:03:00Z,29.6619,-84.3731,65.57,1111122 
COAPS,ioos:station:COAPS:N7:2,2008-09-29T17:04:00Z,29.6619,-84.3731,65.27,1111122 
COAPS,ioos:station:COAPS:N7:2,2008-09-29T17:05:00Z,29.6619,-84.3731,63.76,1111122 
COAPS,ioos:station:COAPS:N7:2,2008-09-29T17:06:00Z,29.6619,-84.3731,65.51,1111122 
COAPS,ioos:station:COAPS:N7:2,2008-09-29T17:07:00Z,29.6619,-84.3731,64.38,1111122 
COAPS,ioos:station:COAPS:N7:2,2008-09-29T17:08:00Z,29.6619,-84.3731,63.27,1111122 
COAPS,ioos:station:COAPS:N7:2,2008-09-29T17:09:00Z,29.6619,-84.3731,64.02,1111122 
COAPS,ioos:station:COAPS:N7:2,2008-09-29T17:10:00Z,29.6619,-84.3731,65.31,1111122 
COAPS,ioos:station:COAPS:N7:2,2008-09-29T17:11:00Z,29.6619,-84.3731,64.19,1111122 
COAPS,ioos:station:COAPS:N7:2,2008-09-29T17:12:00Z,29.6619,-84.3731,64.44,1111122 
COAPS,ioos:station:COAPS:N7:2,2008-09-29T17:13:00Z,29.6619,-84.3731,65.49,1111122 
COAPS,ioos:station:COAPS:N7:2,2008-09-29T17:14:00Z,29.6619,-84.3731,63.23,1111122 
COAPS,ioos:station:COAPS:N7:2,2008-09-29T17:15:00Z,29.6619,-84.3731,65.07,1111122 
COAPS,ioos:station:COAPS:N7:2,2008-09-29T17:16:00Z,29.6619,-84.3731,64.14,1111122 
COAPS,ioos:station:COAPS:N7:2,2008-09-29T17:17:00Z,29.6619,-84.3731,63.96,1111122 
COAPS,ioos:station:COAPS:N7:2,2008-09-29T17:18:00Z,29.6619,-84.3731,66.33,1111122 
COAPS,ioos:station:COAPS:N7:2,2008-09-29T17:19:00Z,29.6619,-84.3731,64.73,1111122 
COAPS,ioos:station:COAPS:N7:2,2008-09-29T17:20:00Z,29.6619,-84.3731,64.57,1111122 
COAPS,ioos:station:COAPS:N7:2,2008-09-29T17:21:00Z,29.6619,-84.3731,65.46,1111122 
COAPS,ioos:station:COAPS:N7:2,2008-09-29T17:22:00Z,29.6619,-84.3731,66.26,1111122 
COAPS,ioos:station:COAPS:N7:2,2008-09-29T17:23:00Z,29.6619,-84.3731,64.4,1111122 
COAPS,ioos:station:COAPS:N7:2,2008-09-29T17:24:00Z,29.6619,-84.3731,64.38,1111122 
COAPS,ioos:station:COAPS:N7:2,2008-09-29T17:25:00Z,29.6619,-84.3731,62.68,1111122 
COAPS,ioos:station:COAPS:N7:2,2008-09-29T17:26:00Z,29.6619,-84.3731,61.94,1111122 
COAPS,ioos:station:COAPS:N7:2,2008-09-29T17:27:00Z,29.6619,-84.3731,64.13,1111122 
COAPS,ioos:station:COAPS:N7:2,2008-09-29T17:28:00Z,29.6619,-84.3731,65.68,1111122 
COAPS,ioos:station:COAPS:N7:2,2008-09-29T17:29:00Z,29.6619,-84.3731,65.67,1111122 
COAPS,ioos:station:COAPS:N7:2,2008-09-29T17:30:00Z,29.6619,-84.3731,64.42,1111122 
COAPS,ioos:station:COAPS:N7:2,2008-09-29T17:31:00Z,29.6619,-84.3731,65.16,1111122 
COAPS,ioos:station:COAPS:N7:2,2008-09-29T17:32:00Z,29.6619,-84.3731,65.5,1111122 
COAPS,ioos:station:COAPS:N7:2,2008-09-29T17:33:00Z,29.6619,-84.3731,65.84,1111122 
COAPS,ioos:station:COAPS:N7:2,2008-09-29T17:34:00Z,29.6619,-84.3731,65.53,1111122 
COAPS,ioos:station:COAPS:N7:2,2008-09-29T17:35:00Z,29.6619,-84.3731,66.88,1111122 
COAPS,ioos:station:COAPS:N7:2,2008-09-29T17:36:00Z,29.6619,-84.3731,66.06,1111122 
COAPS,ioos:station:COAPS:N7:2,2008-09-29T17:37:00Z,29.6619,-84.3731,66.22,1111122 
COAPS,ioos:station:COAPS:N7:2,2008-09-29T17:38:00Z,29.6619,-84.3731,66.68,1111122 
COAPS,ioos:station:COAPS:N7:2,2008-09-29T17:39:00Z,29.6619,-84.3731,66.94,1111122 
COAPS,ioos:station:COAPS:N7:2,2008-09-29T17:40:00Z,29.6619,-84.3731,65.46,1111122 
COAPS,ioos:station:COAPS:N7:2,2008-09-29T17:41:00Z,29.6619,-84.3731,64.12,1111122 
COAPS,ioos:station:COAPS:N7:2,2008-09-29T17:42:00Z,29.6619,-84.3731,61.54,1111122 
COAPS,ioos:station:COAPS:N7:2,2008-09-29T17:43:00Z,29.6619,-84.3731,63.46,1111122 
COAPS,ioos:station:COAPS:N7:2,2008-09-29T17:44:00Z,29.6619,-84.3731,63.89,1111122 
COAPS,ioos:station:COAPS:N7:2,2008-09-29T17:45:00Z,29.6619,-84.3731,64.48,1111122 
COAPS,ioos:station:COAPS:N7:2,2008-09-29T17:46:00Z,29.6619,-84.3731,60.59,1111122 
COAPS,ioos:station:COAPS:N7:2,2008-09-29T17:47:00Z,29.6619,-84.3731,60.14,1111122 
COAPS,ioos:station:COAPS:N7:2,2008-09-29T17:48:00Z,29.6619,-84.3731,62.39,1111122 
COAPS,ioos:station:COAPS:N7:2,2008-09-29T17:49:00Z,29.6619,-84.3731,62.03,1111122 
COAPS,ioos:station:COAPS:N7:2,2008-09-29T17:50:00Z,29.6619,-84.3731,63.67,1111122 
COAPS,ioos:station:COAPS:N7:2,2008-09-29T17:51:00Z,29.6619,-84.3731,62.59,1111122 
COAPS,ioos:station:COAPS:N7:2,2008-09-29T17:52:00Z,29.6619,-84.3731,63.82,1111122 
COAPS,ioos:station:COAPS:N7:2,2008-09-29T17:53:00Z,29.6619,-84.3731,63.09,1111122 
COAPS,ioos:station:COAPS:N7:2,2008-09-29T17:54:00Z,29.6619,-84.3731,62.33,1111122 
COAPS,ioos:station:COAPS:N7:2,2008-09-29T17:55:00Z,29.6619,-84.3731,59.78,1111122 
COAPS,ioos:station:COAPS:N7:2,2008-09-29T17:56:00Z,29.6619,-84.3731,61.55,1111122 
COAPS,ioos:station:COAPS:N7:2,2008-09-29T17:57:00Z,29.6619,-84.3731,62.4,1111122 
COAPS,ioos:station:COAPS:N7:2,2008-09-29T17:58:00Z,29.6619,-84.3731,60.29,1111122 
COAPS,ioos:station:COAPS:N7:2,2008-09-29T17:59:00Z,29.6619,-84.3731,62.49,1111122 
COAPS,ioos:station:COAPS:N7:2,2008-09-29T18:00:00Z,29.6619,-84.3731,60.59,1111122 
COAPS,ioos:station:COAPS:N7:2,2008-09-29T18:01:00Z,29.6619,-84.3731,61.34,1111122 
COAPS,ioos:station:COAPS:N7:2,2008-09-29T18:02:00Z,29.6619,-84.3731,60.12,1111122 
COAPS,ioos:station:COAPS:N7:2,2008-09-29T18:03:00Z,29.6619,-84.3731,61.55,1111122 
COAPS,ioos:station:COAPS:N7:2,2008-09-29T18:04:00Z,29.6619,-84.3731,61.81,1111122 
COAPS,ioos:station:COAPS:N7:2,2008-09-29T18:05:00Z,29.6619,-84.3731,62.22,1111122 
COAPS,ioos:station:COAPS:N7:2,2008-09-29T18:06:00Z,29.6619,-84.3731,62.88,1111122 
COAPS,ioos:station:COAPS:N7:2,2008-09-29T18:07:00Z,29.6619,-84.3731,63.87,1111122 
COAPS,ioos:station:COAPS:N7:2,2008-09-29T18:08:00Z,29.6619,-84.3731,60.36,1111122 
COAPS,ioos:station:COAPS:N7:2,2008-09-29T18:09:00Z,29.6619,-84.3731,61.06,1111122 
COAPS,ioos:station:COAPS:N7:2,2008-09-29T18:10:00Z,29.6619,-84.3731,62.1,1111122 
COAPS,ioos:station:COAPS:N7:2,2008-09-29T18:11:00Z,29.6619,-84.3731,62.38,1111122 
COAPS,ioos:station:COAPS:N7:2,2008-09-29T18:12:00Z,29.6619,-84.3731,62.98,1111122 
COAPS,ioos:station:COAPS:N7:2,2008-09-29T18:13:00Z,29.6619,-84.3731,62.03,1111122 
COAPS,ioos:station:COAPS:N7:2,2008-09-29T18:14:00Z,29.6619,-84.3731,63.94,1111122 
COAPS,ioos:station:COAPS:N7:2,2008-09-29T18:15:00Z,29.6619,-84.3731,62.94,1111122 
COAPS,ioos:station:COAPS:N7:2,2008-09-29T18:16:00Z,29.6619,-84.3731,61.61,1111122 
COAPS,ioos:station:COAPS:N7:2,2008-09-29T18:17:00Z,29.6619,-84.3731,61.95,1111122 
COAPS,ioos:station:COAPS:N7:2,2008-09-29T18:18:00Z,29.6619,-84.3731,60.02,1111122 
COAPS,ioos:station:COAPS:N7:2,2008-09-29T18:19:00Z,29.6619,-84.3731,59.95,1111122 
COAPS,ioos:station:COAPS:N7:2,2008-09-29T18:20:00Z,29.6619,-84.3731,58.38,1111122 
COAPS,ioos:station:COAPS:N7:2,2008-09-29T18:21:00Z,29.6619,-84.3731,56.56,1111122 
COAPS,ioos:station:COAPS:N7:2,2008-09-29T18:22:00Z,29.6619,-84.3731,57.42,1111122 
COAPS,ioos:station:COAPS:N7:2,2008-09-29T18:23:00Z,29.6619,-84.3731,58.7,1111122 
COAPS,ioos:station:COAPS:N7:2,2008-09-29T18:24:00Z,29.6619,-84.3731,59.19,1111122 
COAPS,ioos:station:COAPS:N7:2,2008-09-29T18:25:00Z,29.6619,-84.3731,59.62,1111122 
COAPS,ioos:station:COAPS:N7:2,2008-09-29T18:26:00Z,29.6619,-84.3731,59.57,1111122 
COAPS,ioos:station:COAPS:N7:2,2008-09-29T18:27:00Z,29.6619,-84.3731,58.79,1111122 
COAPS,ioos:station:COAPS:N7:2,2008-09-29T18:28:00Z,29.6619,-84.3731,58.32,1111122 
COAPS,ioos:station:COAPS:N7:2,2008-09-29T18:29:00Z,29.6619,-84.3731,58.6,1111122 
COAPS,ioos:station:COAPS:N7:2,2008-09-29T18:30:00Z,29.6619,-84.3731,59.78,1111122 
COAPS,ioos:station:COAPS:N7:2,2008-09-29T18:31:00Z,29.6619,-84.3731,59.35,1111122 
COAPS,ioos:station:COAPS:N7:2,2008-09-29T18:32:00Z,29.6619,-84.3731,56.72,1111122 
COAPS,ioos:station:COAPS:N7:2,2008-09-29T18:33:00Z,29.6619,-84.3731,57.77,1111122 
COAPS,ioos:station:COAPS:N7:2,2008-09-29T18:34:00Z,29.6619,-84.3731,55.04,1111122 
COAPS,ioos:station:COAPS:N7:2,2008-09-29T18:35:00Z,29.6619,-84.3731,57.64,1111122 
COAPS,ioos:station:COAPS:N7:2,2008-09-29T18:36:00Z,29.6619,-84.3731,56.11,1111122 
COAPS,ioos:station:COAPS:N7:2,2008-09-29T18:37:00Z,29.6619,-84.3731,60.1,1111122 
COAPS,ioos:station:COAPS:N7:2,2008-09-29T18:38:00Z,29.6619,-84.3731,58.07,1111122 
COAPS,ioos:station:COAPS:N7:2,2008-09-29T18:39:00Z,29.6619,-84.3731,56.7,1111122 
COAPS,ioos:station:COAPS:N7:2,2008-09-29T18:40:00Z,29.6619,-84.3731,57.18,1111122 
COAPS,ioos:station:COAPS:N7:2,2008-09-29T18:41:00Z,29.6619,-84.3731,57.51,1111122 
COAPS,ioos:station:COAPS:N7:2,2008-09-29T18:42:00Z,29.6619,-84.3731,58.36,1111122 
COAPS,ioos:station:COAPS:N7:2,2008-09-29T18:43:00Z,29.6619,-84.3731,54.66,1111122 
COAPS,ioos:station:COAPS:N7:2,2008-09-29T18:44:00Z,29.6619,-84.3731,55.89,1111122 
COAPS,ioos:station:COAPS:N7:2,2008-09-29T18:45:00Z,29.6619,-84.3731,57.4,1111122 
COAPS,ioos:station:COAPS:N7:2,2008-09-29T18:46:00Z,29.6619,-84.3731,58.13,1111122 
COAPS,ioos:station:COAPS:N7:2,2008-09-29T18:47:00Z,29.6619,-84.3731,59.16,1111122 
COAPS,ioos:station:COAPS:N7:2,2008-09-29T18:48:00Z,29.6619,-84.3731,58.01,1111122 
COAPS,ioos:station:COAPS:N7:2,2008-09-29T18:49:00Z,29.6619,-84.3731,56.43,1111122 
COAPS,ioos:station:COAPS:N7:2,2008-09-29T18:50:00Z,29.6619,-84.3731,57.04,1111122 
COAPS,ioos:station:COAPS:N7:2,2008-09-29T18:51:00Z,29.6619,-84.3731,57.8,1111122 
COAPS,ioos:station:COAPS:N7:2,2008-09-29T18:52:00Z,29.6619,-84.3731,57.99,1111122 
COAPS,ioos:station:COAPS:N7:2,2008-09-29T18:53:00Z,29.6619,-84.3731,59.02,1111122 
COAPS,ioos:station:COAPS:N7:2,2008-09-29T18:54:00Z,29.6619,-84.3731,58.72,1111122 
COAPS,ioos:station:COAPS:N7:2,2008-09-29T18:55:00Z,29.6619,-84.3731,57.59,1111122 
COAPS,ioos:station:COAPS:N7:2,2008-09-29T18:56:00Z,29.6619,-84.3731,58.21,1111122 
COAPS,ioos:station:COAPS:N7:2,2008-09-29T18:57:00Z,29.6619,-84.3731,57.07,1111122 
COAPS,ioos:station:COAPS:N7:2,2008-09-29T18:58:00Z,29.6619,-84.3731,57.19,1111122 
COAPS,ioos:station:COAPS:N7:2,2008-09-29T18:59:00Z,29.6619,-84.3731,59.31,1111122 
COAPS,ioos:station:COAPS:N7:2,2008-09-29T19:00:00Z,29.6619,-84.3731,58.1,1111122 
COAPS,ioos:station:COAPS:N7:2,2008-09-29T19:01:00Z,29.6619,-84.3731,56.61,1111122 
COAPS,ioos:station:COAPS:N7:2,2008-09-29T19:02:00Z,29.6619,-84.3731,57.21,1111122 
COAPS,ioos:station:COAPS:N7:2,2008-09-29T19:03:00Z,29.6619,-84.3731,55.46,1111122 
COAPS,ioos:station:COAPS:N7:2,2008-09-29T19:04:00Z,29.6619,-84.3731,56.27,1111122 
COAPS,ioos:station:COAPS:N7:2,2008-09-29T19:05:00Z,29.6619,-84.3731,55.4,1111122 
COAPS,ioos:station:COAPS:N7:2,2008-09-29T19:06:00Z,29.6619,-84.3731,55.86,1111122 
COAPS,ioos:station:COAPS:N7:2,2008-09-29T19:07:00Z,29.6619,-84.3731,56.16,1111122 
COAPS,ioos:station:COAPS:N7:2,2008-09-29T19:08:00Z,29.6619,-84.3731,58.16,1111122 
COAPS,ioos:station:COAPS:N7:2,2008-09-29T19:09:00Z,29.6619,-84.3731,57.55,1111122 
COAPS,ioos:station:COAPS:N7:2,2008-09-29T19:10:00Z,29.6619,-84.3731,59.56,1111122 
COAPS,ioos:station:COAPS:N7:2,2008-09-29T19:11:00Z,29.6619,-84.3731,54.42,1111122 
COAPS,ioos:station:COAPS:N7:2,2008-09-29T19:12:00Z,29.6619,-84.3731,57.03,1111122 
COAPS,ioos:station:COAPS:N7:2,2008-09-29T19:13:00Z,29.6619,-84.3731,57.08,1111122 
COAPS,ioos:station:COAPS:N7:2,2008-09-29T19:14:00Z,29.6619,-84.3731,55.06,1111122 
COAPS,ioos:station:COAPS:N7:2,2008-09-29T19:15:00Z,29.6619,-84.3731,54.11,1111122 
COAPS,ioos:station:COAPS:N7:2,2008-09-29T19:16:00Z,29.6619,-84.3731,55.87,1111122 
COAPS,ioos:station:COAPS:N7:2,2008-09-29T19:17:00Z,29.6619,-84.3731,56.18,1111122 
COAPS,ioos:station:COAPS:N7:2,2008-09-29T19:18:00Z,29.6619,-84.3731,55.41,1111122 
COAPS,ioos:station:COAPS:N7:2,2008-09-29T19:19:00Z,29.6619,-84.3731,56.16,1111122 
COAPS,ioos:station:COAPS:N7:2,2008-09-29T19:20:00Z,29.6619,-84.3731,58.62,1111122 
COAPS,ioos:station:COAPS:N7:2,2008-09-29T19:21:00Z,29.6619,-84.3731,59.96,1111122 
COAPS,ioos:station:COAPS:N7:2,2008-09-29T19:22:00Z,29.6619,-84.3731,54.3,1111122 
COAPS,ioos:station:COAPS:N7:2,2008-09-29T19:23:00Z,29.6619,-84.3731,57.36,1111122 
COAPS,ioos:station:COAPS:N7:2,2008-09-29T19:24:00Z,29.6619,-84.3731,57.39,1111122 
COAPS,ioos:station:COAPS:N7:2,2008-09-29T19:25:00Z,29.6619,-84.3731,55.87,1111122 
COAPS,ioos:station:COAPS:N7:2,2008-09-29T19:26:00Z,29.6619,-84.3731,56.89,1111122 
COAPS,ioos:station:COAPS:N7:2,2008-09-29T19:27:00Z,29.6619,-84.3731,55.67,1111122 
COAPS,ioos:station:COAPS:N7:2,2008-09-29T19:28:00Z,29.6619,-84.3731,53.82,1111122 
COAPS,ioos:station:COAPS:N7:2,2008-09-29T19:29:00Z,29.6619,-84.3731,54.49,1111122 
COAPS,ioos:station:COAPS:N7:2,2008-09-29T19:30:00Z,29.6619,-84.3731,56.68,1111122 
COAPS,ioos:station:COAPS:N7:2,2008-09-29T19:31:00Z,29.6619,-84.3731,56.12,1111122 
COAPS,ioos:station:COAPS:N7:2,2008-09-29T19:32:00Z,29.6619,-84.3731,56.88,1111122 
COAPS,ioos:station:COAPS:N7:2,2008-09-29T19:33:00Z,29.6619,-84.3731,54.87,1111122 
COAPS,ioos:station:COAPS:N7:2,2008-09-29T19:34:00Z,29.6619,-84.3731,57.22,1111122 
COAPS,ioos:station:COAPS:N7:2,2008-09-29T19:35:00Z,29.6619,-84.3731,54.95,1111122 
COAPS,ioos:station:COAPS:N7:2,2008-09-29T19:36:00Z,29.6619,-84.3731,55.6,1111122 
COAPS,ioos:station:COAPS:N7:2,2008-09-29T19:37:00Z,29.6619,-84.3731,54.43,1111122 
COAPS,ioos:station:COAPS:N7:2,2008-09-29T19:38:00Z,29.6619,-84.3731,53.12,1111122 
COAPS,ioos:station:COAPS:N7:2,2008-09-29T19:39:00Z,29.6619,-84.3731,52.04,1111122 
COAPS,ioos:station:COAPS:N7:2,2008-09-29T19:40:00Z,29.6619,-84.3731,54.8,1111122 
COAPS,ioos:station:COAPS:N7:2,2008-09-29T19:41:00Z,29.6619,-84.3731,55.92,1111122 
COAPS,ioos:station:COAPS:N7:2,2008-09-29T19:42:00Z,29.6619,-84.3731,54.92,1111122 
COAPS,ioos:station:COAPS:N7:2,2008-09-29T19:43:00Z,29.6619,-84.3731,54.63,1111122 
COAPS,ioos:station:COAPS:N7:2,2008-09-29T19:44:00Z,29.6619,-84.3731,53.75,1111122 
COAPS,ioos:station:COAPS:N7:2,2008-09-29T19:45:00Z,29.6619,-84.3731,54.17,1111122 
COAPS,ioos:station:COAPS:N7:2,2008-09-29T19:46:00Z,29.6619,-84.3731,54.12,1111122 
COAPS,ioos:station:COAPS:N7:2,2008-09-29T19:47:00Z,29.6619,-84.3731,53.57,1111122 
COAPS,ioos:station:COAPS:N7:2,2008-09-29T19:48:00Z,29.6619,-84.3731,53.07,1111122 
COAPS,ioos:station:COAPS:N7:2,2008-09-29T19:49:00Z,29.6619,-84.3731,54.43,1111122 
COAPS,ioos:station:COAPS:N7:2,2008-09-29T19:50:00Z,29.6619,-84.3731,54.55,1111122 
COAPS,ioos:station:COAPS:N7:2,2008-09-29T19:51:00Z,29.6619,-84.3731,53.12,1111122 
COAPS,ioos:station:COAPS:N7:2,2008-09-29T19:52:00Z,29.6619,-84.3731,53.55,1111122 
COAPS,ioos:station:COAPS:N7:2,2008-09-29T19:53:00Z,29.6619,-84.3731,55.28,1111122 
COAPS,ioos:station:COAPS:N7:2,2008-09-29T19:54:00Z,29.6619,-84.3731,55.09,1111122 
COAPS,ioos:station:COAPS:N7:2,2008-09-29T19:55:00Z,29.6619,-84.3731,56.43,1111122 
COAPS,ioos:station:COAPS:N7:2,2008-09-29T19:56:00Z,29.6619,-84.3731,53.61,1111122 
COAPS,ioos:station:COAPS:N7:2,2008-09-29T19:57:00Z,29.6619,-84.3731,54.04,1111122 
COAPS,ioos:station:COAPS:N7:2,2008-09-29T19:58:00Z,29.6619,-84.3731,52.77,1111122 
COAPS,ioos:station:COAPS:N7:2,2008-09-29T19:59:00Z,29.6619,-84.3731,53.13,1111122 
COAPS,ioos:station:COAPS:N7:2,2008-09-29T20:00:00Z,29.6619,-84.3731,53.28,1111122 
COAPS,ioos:station:COAPS:N7:2,2008-09-29T20:01:00Z,29.6619,-84.3731,52.79,1111122 
COAPS,ioos:station:COAPS:N7:2,2008-09-29T20:02:00Z,29.6619,-84.3731,52.92,1111122 
COAPS,ioos:station:COAPS:N7:2,2008-09-29T20:03:00Z,29.6619,-84.3731,54.82,1111122 
COAPS,ioos:station:COAPS:N7:2,2008-09-29T20:04:00Z,29.6619,-84.3731,54.98,1111122 
COAPS,ioos:station:COAPS:N7:2,2008-09-29T20:05:00Z,29.6619,-84.3731,55.65,1111122 
COAPS,ioos:station:COAPS:N7:2,2008-09-29T20:06:00Z,29.6619,-84.3731,53.58,1111122 
COAPS,ioos:station:COAPS:N7:2,2008-09-29T20:07:00Z,29.6619,-84.3731,54.74,1111122 
COAPS,ioos:station:COAPS:N7:2,2008-09-29T20:08:00Z,29.6619,-84.3731,53.33,1111122 
COAPS,ioos:station:COAPS:N7:2,2008-09-29T20:09:00Z,29.6619,-84.3731,54.81,1111122 
COAPS,ioos:station:COAPS:N7:2,2008-09-29T20:10:00Z,29.6619,-84.3731,54.09,1111122 
COAPS,ioos:station:COAPS:N7:2,2008-09-29T20:11:00Z,29.6619,-84.3731,53.34,1111122 
COAPS,ioos:station:COAPS:N7:2,2008-09-29T20:12:00Z,29.6619,-84.3731,53.42,1111122 
COAPS,ioos:station:COAPS:N7:2,2008-09-29T20:13:00Z,29.6619,-84.3731,54.73,1111122 
COAPS,ioos:station:COAPS:N7:2,2008-09-29T20:14:00Z,29.6619,-84.3731,54.73,1111122 
COAPS,ioos:station:COAPS:N7:2,2008-09-29T20:15:00Z,29.6619,-84.3731,55.55,1111122 
COAPS,ioos:station:COAPS:N7:2,2008-09-29T20:16:00Z,29.6619,-84.3731,54.73,1111122 
COAPS,ioos:station:COAPS:N7:2,2008-09-29T20:17:00Z,29.6619,-84.3731,56.0,1111122 
COAPS,ioos:station:COAPS:N7:2,2008-09-29T20:18:00Z,29.6619,-84.3731,55.65,1111122 
COAPS,ioos:station:COAPS:N7:2,2008-09-29T20:19:00Z,29.6619,-84.3731,57.37,1111122 
COAPS,ioos:station:COAPS:N7:2,2008-09-29T20:20:00Z,29.6619,-84.3731,56.04,1111122 
COAPS,ioos:station:COAPS:N7:2,2008-09-29T20:21:00Z,29.6619,-84.3731,54.61,1111122 
COAPS,ioos:station:COAPS:N7:2,2008-09-29T20:22:00Z,29.6619,-84.3731,54.8,1111122 
COAPS,ioos:station:COAPS:N7:2,2008-09-29T20:23:00Z,29.6619,-84.3731,54.54,1111122 
COAPS,ioos:station:COAPS:N7:2,2008-09-29T20:24:00Z,29.6619,-84.3731,55.28,1111122 
COAPS,ioos:station:COAPS:N7:2,2008-09-29T20:25:00Z,29.6619,-84.3731,56.07,1111122 
COAPS,ioos:station:COAPS:N7:2,2008-09-29T20:26:00Z,29.6619,-84.3731,54.08,1111122 
COAPS,ioos:station:COAPS:N7:2,2008-09-29T20:27:00Z,29.6619,-84.3731,53.34,1111122 
COAPS,ioos:station:COAPS:N7:2,2008-09-29T20:28:00Z,29.6619,-84.3731,53.82,1111122 
COAPS,ioos:station:COAPS:N7:2,2008-09-29T20:29:00Z,29.6619,-84.3731,53.05,1111122 
COAPS,ioos:station:COAPS:N7:2,2008-09-29T20:30:00Z,29.6619,-84.3731,54.27,1111122 
COAPS,ioos:station:COAPS:N7:2,2008-09-29T20:31:00Z,29.6619,-84.3731,54.25,1111122 
COAPS,ioos:station:COAPS:N7:2,2008-09-29T20:32:00Z,29.6619,-84.3731,54.77,1111122 
COAPS,ioos:station:COAPS:N7:2,2008-09-29T20:33:00Z,29.6619,-84.3731,55.06,1111122 
COAPS,ioos:station:COAPS:N7:2,2008-09-29T20:34:00Z,29.6619,-84.3731,54.28,1111122 
COAPS,ioos:station:COAPS:N7:2,2008-09-29T20:35:00Z,29.6619,-84.3731,52.78,1111122 
COAPS,ioos:station:COAPS:N7:2,2008-09-29T20:36:00Z,29.6619,-84.3731,53.75,1111122 
COAPS,ioos:station:COAPS:N7:2,2008-09-29T20:37:00Z,29.6619,-84.3731,53.84,1111122 
COAPS,ioos:station:COAPS:N7:2,2008-09-29T20:38:00Z,29.6619,-84.3731,53.92,1111122 
COAPS,ioos:station:COAPS:N7:2,2008-09-29T20:39:00Z,29.6619,-84.3731,53.34,1111122 
COAPS,ioos:station:COAPS:N7:2,2008-09-29T20:40:00Z,29.6619,-84.3731,54.95,1111122 
COAPS,ioos:station:COAPS:N7:2,2008-09-29T20:41:00Z,29.6619,-84.3731,52.87,1111122 
COAPS,ioos:station:COAPS:N7:2,2008-09-29T20:42:00Z,29.6619,-84.3731,54.59,1111122 
COAPS,ioos:station:COAPS:N7:2,2008-09-29T20:43:00Z,29.6619,-84.3731,53.16,1111122 
COAPS,ioos:station:COAPS:N7:2,2008-09-29T20:44:00Z,29.6619,-84.3731,54.35,1111122 
COAPS,ioos:station:COAPS:N7:2,2008-09-29T20:45:00Z,29.6619,-84.3731,56.01,1111122 
COAPS,ioos:station:COAPS:N7:2,2008-09-29T20:46:00Z,29.6619,-84.3731,54.12,1111122 
COAPS,ioos:station:COAPS:N7:2,2008-09-29T20:47:00Z,29.6619,-84.3731,54.29,1111122 
COAPS,ioos:station:COAPS:N7:2,2008-09-29T20:48:00Z,29.6619,-84.3731,54.09,1111122 
COAPS,ioos:station:COAPS:N7:2,2008-09-29T20:49:00Z,29.6619,-84.3731,55.69,1111122 
COAPS,ioos:station:COAPS:N7:2,2008-09-29T20:50:00Z,29.6619,-84.3731,55.34,1111122 
COAPS,ioos:station:COAPS:N7:2,2008-09-29T20:51:00Z,29.6619,-84.3731,55.77,1111122 
COAPS,ioos:station:COAPS:N7:2,2008-09-29T20:52:00Z,29.6619,-84.3731,55.2,1111122 
COAPS,ioos:station:COAPS:N7:2,2008-09-29T20:53:00Z,29.6619,-84.3731,55.21,1111122 
COAPS,ioos:station:COAPS:N7:2,2008-09-29T20:54:00Z,29.6619,-84.3731,54.4,1111122 
COAPS,ioos:station:COAPS:N7:2,2008-09-29T20:55:00Z,29.6619,-84.3731,53.33,1111122 
COAPS,ioos:station:COAPS:N7:2,2008-09-29T20:56:00Z,29.6619,-84.3731,55.66,1111122 
COAPS,ioos:station:COAPS:N7:2,2008-09-29T20:57:00Z,29.6619,-84.3731,55.07,1111122 
COAPS,ioos:station:COAPS:N7:2,2008-09-29T20:58:00Z,29.6619,-84.3731,55.25,1111122 
COAPS,ioos:station:COAPS:N7:2,2008-09-29T20:59:00Z,29.6619,-84.3731,55.06,1111122 
COAPS,ioos:station:COAPS:N7:2,2008-09-29T21:00:00Z,29.6619,-84.3731,55.17,1111122 
COAPS,ioos:station:COAPS:N7:2,2008-09-29T21:01:00Z,29.6619,-84.3731,55.79,1111122 
COAPS,ioos:station:COAPS:N7:2,2008-09-29T21:02:00Z,29.6619,-84.3731,56.82,1111122 
COAPS,ioos:station:COAPS:N7:2,2008-09-29T21:03:00Z,29.6619,-84.3731,53.95,1111122 
COAPS,ioos:station:COAPS:N7:2,2008-09-29T21:04:00Z,29.6619,-84.3731,55.39,1111122 
COAPS,ioos:station:COAPS:N7:2,2008-09-29T21:05:00Z,29.6619,-84.3731,55.42,1111122 
COAPS,ioos:station:COAPS:N7:2,2008-09-29T21:06:00Z,29.6619,-84.3731,53.44,1111122 
COAPS,ioos:station:COAPS:N7:2,2008-09-29T21:07:00Z,29.6619,-84.3731,54.66,1111122 
COAPS,ioos:station:COAPS:N7:2,2008-09-29T21:08:00Z,29.6619,-84.3731,54.65,1111122 
COAPS,ioos:station:COAPS:N7:2,2008-09-29T21:09:00Z,29.6619,-84.3731,53.85,1111122 
COAPS,ioos:station:COAPS:N7:2,2008-09-29T21:10:00Z,29.6619,-84.3731,53.58,1111122 
COAPS,ioos:station:COAPS:N7:2,2008-09-29T21:11:00Z,29.6619,-84.3731,53.12,1111122 
COAPS,ioos:station:COAPS:N7:2,2008-09-29T21:12:00Z,29.6619,-84.3731,56.19,1111122 
COAPS,ioos:station:COAPS:N7:2,2008-09-29T21:13:00Z,29.6619,-84.3731,52.32,1111122 
COAPS,ioos:station:COAPS:N7:2,2008-09-29T21:14:00Z,29.6619,-84.3731,53.79,1111122 
COAPS,ioos:station:COAPS:N7:2,2008-09-29T21:15:00Z,29.6619,-84.3731,54.74,1111122 
COAPS,ioos:station:COAPS:N7:2,2008-09-29T21:16:00Z,29.6619,-84.3731,55.57,1111122 
COAPS,ioos:station:COAPS:N7:2,2008-09-29T21:17:00Z,29.6619,-84.3731,55.12,1111122 
COAPS,ioos:station:COAPS:N7:2,2008-09-29T21:18:00Z,29.6619,-84.3731,54.42,1111122 
COAPS,ioos:station:COAPS:N7:2,2008-09-29T21:19:00Z,29.6619,-84.3731,52.69,1111122 
COAPS,ioos:station:COAPS:N7:2,2008-09-29T21:20:00Z,29.6619,-84.3731,54.08,1111122 
COAPS,ioos:station:COAPS:N7:2,2008-09-29T21:21:00Z,29.6619,-84.3731,52.92,1111122 
COAPS,ioos:station:COAPS:N7:2,2008-09-29T21:22:00Z,29.6619,-84.3731,52.99,1111122 
COAPS,ioos:station:COAPS:N7:2,2008-09-29T21:23:00Z,29.6619,-84.3731,52.63,1111122 
COAPS,ioos:station:COAPS:N7:2,2008-09-29T21:24:00Z,29.6619,-84.3731,53.07,1111122 
COAPS,ioos:station:COAPS:N7:2,2008-09-29T21:25:00Z,29.6619,-84.3731,53.11,1111122 
COAPS,ioos:station:COAPS:N7:2,2008-09-29T21:26:00Z,29.6619,-84.3731,52.56,1111122 
COAPS,ioos:station:COAPS:N7:2,2008-09-29T21:27:00Z,29.6619,-84.3731,52.71,1111122 
COAPS,ioos:station:COAPS:N7:2,2008-09-29T21:28:00Z,29.6619,-84.3731,52.97,1111122 
COAPS,ioos:station:COAPS:N7:2,2008-09-29T21:29:00Z,29.6619,-84.3731,53.68,1111122 
COAPS,ioos:station:COAPS:N7:2,2008-09-29T21:30:00Z,29.6619,-84.3731,55.1,1111122 
COAPS,ioos:station:COAPS:N7:2,2008-09-29T21:31:00Z,29.6619,-84.3731,55.03,1111122 